Regional Weather Roundup
Issued by NWS

Home | Current Version | Previous Version | Graphics & Text | Print | Product List | Glossary On
Versions: 1 2 3 4 5 6 7 8 9 10 11 12 13 14 15 16 17 18 19 20 21 22 23 24 25 26 27 28 29 30 31 32 33 34 35 36 37 38 39 40 41 42 43 44 45 46 47
000
ASUS45 KTFX 290310
RWRMT
MONTANA REGIONAL WEATHER ROUNDUP
NATIONAL WEATHER SERVICE GREAT FALLS MT
900 PM MDT THU MAY 28 2015

NOTE: "FAIR" INDICATES FEW OR NO CLOUDS BELOW 12000 FEET WITH NO
SIGNIFICANT WEATHER AND/OR OBSTRUCTIONS TO VISIBILITY.

MTZ001>007-043-290400-
WEST OF THE DIVIDE

CITY           SKY/WX    TMP DP  RH WIND       PRES   REMARKS
KALISPELL      CLOUDY    60  42  51 NE15      30.18R
MISSOULA       CLOUDY    62  45  53 E10       30.18R
BUTTE          CLOUDY    51  44  77 SE3       30.26R
MULLAN PASS    CLOUDY    49  44  83 SE12G20   30.25R
DEER LODGE       N/A     52  45  76 NE9G16    30.31R
EUREKA           N/A     63  48  59 SW6       30.18S
HAMILTON         N/A     59  48  67 SE2       30.18R
LIBBY            N/A     55  54  94 CALM      30.21R
PLAINS           N/A     60  49  67 E5        30.17R
RONAN            N/A     61  53  74 E2        30.20R
THOMPSON FALLS   N/A     62  53  72 CALM      30.19R
$$

MTZ008-052>055-290400-
SOUTHWEST MONTANA

CITY           SKY/WX    TMP DP  RH WIND       PRES   REMARKS
BOZEMAN        CLOUDY    51  49  92 S3        30.23R
DILLON         CLOUDY    52  45  77 E6        30.23R
W YELLOWSTONE  CLOUDY    48  39  71 NE10      30.24R
$$

MTZ009-010-012-014-046-048-049-054-290400-
EAST SLOPES AND CENTRAL MONTANA

CITY           SKY/WX    TMP DP  RH WIND       PRES   REMARKS
CUT BANK       CLOUDY    46  42  86 N9        30.32R FOG
GREAT FALLS    LGT RAIN  47  45  93 N16       30.29R FOG
MALMSTROM AFB  DRIZZLE   48  46  93 N16       30.29R
HELENA         CLOUDY    51  44  77 NW14      30.28R
CONRAD           N/A     47  47 100 NW12      30.31R
$$

MTZ011-013-016-021-045-047-050-051-290400-
NORTH CENTRAL MONTANA

CITY           SKY/WX    TMP DP  RH WIND       PRES   REMARKS
HAVRE          CLOUDY    52  43  71 NE3       30.26S
LEWISTOWN      CLOUDY    53  49  86 N13       30.22R
N BAR RANCH    CLOUDY    50  48  93 N12G20    30.24R
CHINOOK          N/A     52  43  71 CALM      30.27R
FORT BENTON      N/A     50  45  81 NW13G18   30.29R
$$

MTZ017>020-022>027-061-062-290400-
NORTHEAST MONTANA

CITY           SKY/WX    TMP DP  RH WIND       PRES   REMARKS
GLASGOW        CLOUDY    54  44  69 N17       30.15R
JORDAN           N/A     55  51  86 N18G28    30.13R
SIDNEY         MOCLDY    61  46  59 N21G26    30.06R
WOLF POINT     CLOUDY    55  45  68 NE13      30.13R
MALTA            N/A     53  42  66 N12       30.17R
PLENTYWOOD       N/A     50  41  71 N20G28    30.11R
POPLAR           N/A     54  43  66 N23G32    30.10R
SCOBEY           N/A     49  38  65 N15       30.12R
$$

MTZ028>42-056>058-290400-
SOUTHCENTRAL AND SOUTHEAST MONTANA

CITY           SKY/WX    TMP DP  RH WIND       PRES   REMARKS
BAKER          CLOUDY    59  53  80 N21G29    30.00R
BILLINGS       LGT RAIN  55  51  86 N9        30.17R
LIVINGSTON     CLOUDY    52  44  74 S5        30.22R
MILES CITY     CLOUDY    58  51  78 N13       30.05R
BIG TIMBER       N/A     52  46  82 CALM      30.24R
EKALAKA          N/A     54  50  86 W10       30.00R
LAUREL           N/A     53  47  80 CALM      30.16R
ROUNDUP          N/A     57  49  75 N10       30.08R
$$

REGIONAL REPORTS...DAKOTAS

CITY           SKY/WX    TMP DP  RH WIND       PRES   REMARKS
WILLISTON      MOCLDY    56  46  69 N22G36    30.05R
MINOT          MOCLDY    56  49  77 NW26G32   29.97R
DICKINSON      LGT RAIN  62  55  77 N9        29.96R
BEACH          FAIR      57  50  77 N23G29    30.03R
CROSBY         CLOUDY    48  46  93 N23G30    30.11R
WATFORD CITY   CLOUDY    57  52  82 N16G31    30.01R
BISMARCK       CLOUDY    69  56  62 N9        29.89R
GRAND FORKS    MOCLDY    62  60  93 N9        29.81R
FARGO          LGT RAIN  65  61  87 SE6       29.81R
BUFFALO SD       N/A     57  54  89 CALM      29.91S
RAPID CITY     CLOUDY    56  52  86 W9        29.96R
$$

REGIONAL REPORTS...WYOMING/IDAHO/WASHINGTON

CITY           SKY/WX    TMP DP  RH WIND       PRES   REMARKS
GILLETTE       CLOUDY    51  48  89 W7        30.06R
SHERIDAN       CLOUDY    56  47  71 NW23G31   30.12R
BUFFALO WY     CLOUDY    53  44  71 NW14      30.13R
CODY           CLOUDY    52  45  76 N8        30.19R
YELLOWSTONE LA   N/A     42  39  89 CALM      30.28R
IDAHO FALLS    MOCLDY    56  48  74 NE5       30.18R
SALMON         PTCLDY    57  46  67 CALM      30.16R
BOISE          CLEAR     74  41  30 W7        30.02S
SPOKANE        MOCLDY    69  49  48 E13G23    30.08R
$$

REGIONAL REPORTS...ALBERTA

CITY           SKY/WX    TMP DP  RH WIND       PRES   REMARKS
EDMONTON       CLEAR     50  25  37 NE6       30.30R
CALGARY        MOCLDY    52  41  66 S7        30.29F
LETHBRIDGE     CLOUDY    50  45  81 SE2       30.31S
MEDICINE HAT   PTCLDY    54  36  50 NE5       30.27R
$$

REGIONAL REPORTS...SASKATCHEWAN

CITY           SKY/WX    TMP DP  RH WIND       PRES   REMARKS
SWIFT CURRENT  CLEAR     46  30  53 N10       30.23R
REGINA         PTCLDY    46  34  61 N14G26    30.20R
SASKATOON      CLEAR     46  28  49 NE10      30.29R
$$



USA.gov is the U.S. government's official web portal to all federal, state and local government web resources and services.